Orange City, IA

7:44 PM CST on February 19, 2017 (GMT -0600)
Orange City Municipal

Weather History for KORC - February, 2013

Change the Weather History Date:

Tuesday, February 19, 2013

  Actual Average Record
Temperature  
Mean Temperature 8 °F -  
Max Temperature 15 °F 33 °F 53 °F (2014)
Min Temperature 1 °F 19 °F -9 °F (2008)
Degree Days  
Heating Degree Days 57    
Moisture  
Dew Point -2 °F    
Average Humidity 64    
Maximum Humidity 78    
Minimum Humidity 45    
Precipitation  
Precipitation 0.00 in - - ()
Sea Level Pressure  
Sea Level Pressure 30.20 in    
Wind  
Wind Speed 19 mph (NW)    
Max Wind Speed 25 mph    
Max Gust Speed 36 mph    
Visibility 10 miles    
Events Snow    
Averages and records for this station are not official NWS values.
T = Trace of Precipitation, MM = Missing Value Source: NWS Daily Summary

Daily Weather History Graph

Daily Weather History Graph

Search for Another Location

Airport or City:

Trip Planner

Search our weather history database for the weather conditions in past years. The results will help you decide how hot, cold, wet, or windy it might be!

Date:

Astronomy

Feb. 19, 2013 Rise Set
Actual Time 7:15 AM CST 6:01 PM CST
Civil Twilight 6:46 AM CST 6:30 PM CST
Nautical Twilight 6:13 AM CST 7:03 PM CST
Astronomical Twilight 5:40 AM CST 7:36 PM CST
Moon 12:28 PM CST (2/19) 2:52 AM CST (2/19)
Length of Visible Light 11h 43m
Length of Day
10h 45m
Waxing Gibbous, 67% of the Moon is Illuminated
Feb 19
Waxing Gibbous
Feb 25
Full
Mar 4
Last Quarter
Mar 11
New
Mar 19
First Quarter

Hourly Weather History & Observations

Time (CST) Temp. Windchill Dew Point Humidity Pressure Visibility Wind Dir Wind Speed Gust Speed Precip Events Conditions
12:15 AM 10.4 °F -7.2 °F 3.2 °F 73% 30.00 in 7.0 mi NW 17.3 mph 29.9 mph N/A   Overcast
12:35 AM 10.4 °F -9.1 °F 3.2 °F 73% 30.01 in 7.0 mi NW 21.9 mph 27.6 mph N/A   Overcast
12:55 AM 10.4 °F -6.0 °F 3.2 °F 73% 30.02 in 10.0 mi NW 15.0 mph 33.4 mph N/A   Overcast
1:15 AM 8.6 °F -12.3 °F 1.4 °F 73% 30.02 in 10.0 mi NW 24.2 mph 34.5 mph N/A   Overcast
1:35 AM 10.4 °F -9.9 °F 1.4 °F 67% 30.03 in 10.0 mi NW 24.2 mph 35.7 mph N/A   Overcast
1:55 AM 10.4 °F -9.9 °F 1.4 °F 67% 30.03 in 10.0 mi NW 24.2 mph 31.1 mph N/A   Overcast
2:15 AM 10.4 °F -10.3 °F 1.4 °F 67% 30.04 in 10.0 mi NW 25.3 mph 35.7 mph N/A   Overcast
2:35 AM 10.4 °F -9.1 °F 1.4 °F 67% 30.05 in 10.0 mi NW 21.9 mph 31.1 mph N/A   Overcast
2:55 AM 10.4 °F -9.5 °F 1.4 °F 67% 30.05 in 10.0 mi NW 23.0 mph 29.9 mph N/A   Overcast
3:15 AM 8.6 °F -11.9 °F 1.4 °F 73% 30.06 in 7.0 mi NW 23.0 mph 32.2 mph N/A   Overcast
3:35 AM 10.4 °F -9.1 °F 1.4 °F 67% 30.07 in 7.0 mi NW 21.9 mph 34.5 mph N/A   Overcast
3:55 AM 8.6 °F -11.4 °F 1.4 °F 73% 30.08 in 7.0 mi NNW 21.9 mph 28.8 mph N/A   Overcast
4:15 AM 8.6 °F -10.5 °F -0.4 °F 67% 30.09 in 10.0 mi NNW 19.6 mph 29.9 mph N/A   Overcast
4:35 AM 8.6 °F -11.4 °F 1.4 °F 73% 30.09 in 4.0 mi NW 21.9 mph 29.9 mph N/A Snow Light Snow
4:55 AM 8.6 °F -12.7 °F -2.2 °F 62% 30.10 in 10.0 mi NW 25.3 mph 32.2 mph N/A   Mostly Cloudy
5:15 AM 6.8 °F -13.8 °F -0.4 °F 72% 30.10 in 10.0 mi NW 21.9 mph 29.9 mph N/A   Mostly Cloudy
5:55 AM 5.0 °F -15.7 °F -0.4 °F 78% 30.12 in 10.0 mi NW 20.7 mph 28.8 mph N/A   Overcast
6:15 AM 6.8 °F -12.4 °F -0.4 °F 72% 30.13 in 7.0 mi NW 18.4 mph 24.2 mph N/A   Overcast
6:35 AM 6.8 °F -14.3 °F -0.4 °F 72% 30.13 in 10.0 mi NW 23.0 mph 31.1 mph N/A   Overcast
6:55 AM 5.0 °F -17.5 °F -0.4 °F 78% 30.14 in 10.0 mi NW 25.3 mph 31.1 mph N/A   Scattered Clouds
7:15 AM 3.2 °F -19.5 °F -2.2 °F 78% 30.15 in 10.0 mi NW 24.2 mph 34.5 mph N/A   Clear
7:35 AM 3.2 °F -19.5 °F -2.2 °F 78% 30.17 in 10.0 mi NW 24.2 mph 32.2 mph N/A   Clear
7:55 AM 3.2 °F -18.1 °F -4.0 °F 72% 30.17 in 10.0 mi NW 20.7 mph 27.6 mph N/A   Clear
8:15 AM 3.2 °F -18.1 °F -4.0 °F 72% 30.19 in 10.0 mi NW 20.7 mph 27.6 mph N/A   Clear
8:35 AM 3.2 °F -18.6 °F -4.0 °F 72% 30.20 in 10.0 mi NW 21.9 mph 27.6 mph N/A   Clear
8:55 AM 3.2 °F -17.6 °F -5.8 °F 66% 30.21 in 10.0 mi NW 19.6 mph 27.6 mph N/A   Clear
9:15 AM 5.0 °F -15.7 °F -5.8 °F 61% 30.21 in 10.0 mi NW 20.7 mph 25.3 mph N/A   Clear
9:35 AM 5.0 °F -15.2 °F -5.8 °F 61% 30.23 in 10.0 mi NW 19.6 mph 27.6 mph N/A   Clear
9:55 AM 5.0 °F -17.1 °F -4.0 °F 66% 30.23 in 10.0 mi NW 24.2 mph 31.1 mph N/A   Clear
10:15 AM 6.8 °F -15.1 °F -4.0 °F 61% 30.23 in 10.0 mi NW 25.3 mph 31.1 mph N/A   Clear
10:35 AM 6.8 °F -12.4 °F -4.0 °F 61% 30.24 in 10.0 mi NW 18.4 mph 29.9 mph N/A   Clear
10:55 AM 8.6 °F -11.9 °F -2.2 °F 62% 30.24 in 10.0 mi NW 23.0 mph 28.8 mph N/A   Clear
11:15 AM 8.6 °F -11.4 °F -4.0 °F 57% 30.25 in 10.0 mi NW 21.9 mph 26.5 mph N/A   Clear
11:35 AM 8.6 °F -10.0 °F -4.0 °F 57% 30.27 in 10.0 mi NW 18.4 mph 28.8 mph N/A   Clear
11:55 AM 10.4 °F -6.0 °F -2.2 °F 57% 30.27 in 10.0 mi NW 15.0 mph 27.6 mph N/A   Clear
12:15 PM 10.4 °F -9.1 °F -4.0 °F 52% 30.26 in 10.0 mi NW 21.9 mph 28.8 mph N/A   Clear
12:35 PM 10.4 °F -6.0 °F -2.2 °F 57% 30.26 in 10.0 mi NW 15.0 mph 27.6 mph N/A   Clear
12:55 PM 12.2 °F -5.3 °F -2.2 °F 53% 30.26 in 10.0 mi NW 18.4 mph 29.9 mph N/A   Clear
1:15 PM 12.2 °F -3.7 °F -2.2 °F 53% 30.27 in 10.0 mi NW 15.0 mph 24.2 mph N/A   Clear
1:35 PM 12.2 °F -6.7 °F -2.2 °F 53% 30.26 in 10.0 mi NW 21.9 mph 27.6 mph N/A   Clear
1:55 PM 14.0 °F -3.9 °F -2.2 °F 49% 30.25 in 10.0 mi NW 20.7 mph 28.8 mph N/A   Clear
2:15 PM 14.0 °F -2.5 °F -2.2 °F 49% 30.26 in 10.0 mi NW 17.3 mph 27.6 mph N/A   Clear
2:35 PM 15.8 °F 0.3 °F -2.2 °F 45% 30.26 in 10.0 mi NW 16.1 mph 27.6 mph N/A   Clear
2:55 PM 15.8 °F 0.9 °F -2.2 °F 45% 30.27 in 10.0 mi NW 15.0 mph 21.9 mph N/A   Clear
3:15 PM 15.8 °F -0.6 °F -2.2 °F 45% 30.26 in 10.0 mi NW 18.4 mph 24.2 mph N/A   Clear
3:35 PM 14.0 °F -2.5 °F -2.2 °F 49% 30.26 in 10.0 mi NW 17.3 mph 23.0 mph N/A   Clear
3:55 PM 15.8 °F 1.4 °F -2.2 °F 45% 30.27 in 10.0 mi NNW 13.8 mph 21.9 mph N/A   Clear
4:15 PM 15.8 °F 2.7 °F -2.2 °F 45% 30.27 in 10.0 mi NNW 11.5 mph 20.7 mph N/A   Clear
4:35 PM 14.0 °F -0.8 °F -2.2 °F 49% 30.27 in 10.0 mi NNW 13.8 mph - N/A   Clear
4:55 PM 12.2 °F -3.1 °F -2.2 °F 53% 30.26 in 10.0 mi North 13.8 mph 18.4 mph N/A   Clear
5:15 PM 12.2 °F -1.8 °F -2.2 °F 53% 30.27 in 10.0 mi NNW 11.5 mph 17.3 mph N/A   Clear
6:35 PM 8.6 °F -7.0 °F -2.2 °F 62% 30.28 in 10.0 mi NNW 12.7 mph 17.3 mph N/A   Clear
7:15 PM 6.8 °F -5.9 °F -4.0 °F 61% 30.29 in 10.0 mi North 8.1 mph - N/A   Clear
7:35 PM 6.8 °F -7.8 °F -2.2 °F 67% 30.30 in 10.0 mi NNW 10.4 mph - N/A   Clear
7:55 PM 6.8 °F -9.3 °F -2.2 °F 67% 30.29 in 10.0 mi NNW 12.7 mph - N/A   Clear
8:15 PM 6.8 °F -7.8 °F -2.2 °F 67% 30.29 in 10.0 mi NNW 10.4 mph - N/A   Clear
9:15 PM 3.2 °F -11.3 °F -4.0 °F 72% 30.32 in 10.0 mi NNW 9.2 mph - N/A   Clear
9:35 PM 3.2 °F -11.3 °F -4.0 °F 72% 30.32 in 10.0 mi North 9.2 mph - N/A   Clear
9:55 PM 3.2 °F -9.1 °F -5.8 °F 66% 30.32 in 10.0 mi NNW 6.9 mph - N/A   Clear
10:15 PM 3.2 °F -12.2 °F -5.8 °F 66% 30.32 in 10.0 mi North 10.4 mph - N/A   Clear
10:35 PM 3.2 °F -11.3 °F -5.8 °F 66% 30.33 in 10.0 mi North 9.2 mph - N/A   Clear
10:55 PM 1.4 °F -8.3 °F -5.8 °F 72% 30.35 in 10.0 mi North 4.6 mph - N/A   Clear
11:15 PM 1.4 °F -12.5 °F -5.8 °F 72% 30.35 in 10.0 mi North 8.1 mph - N/A   Clear
11:35 PM 1.4 °F -9.9 °F -5.8 °F 72% 30.36 in 10.0 mi North 5.8 mph - N/A   Clear